DW5678 Kavala GR current weather conditions

sailwx.info

Wind from 294

Air temperature 11.1° C
Dewpoint 8.3° C

Last reported at 2014-Oct-31 19:45 UTC.
Time now 2014-Nov-01 07:01 UTC

Location: N 40°56' E 024°24'.
View on Google Maps.

See reports from other nearby stations

  
Tides and Currents Weather Stations Pressure Air Temp Water Temp Dewpoint Dewpoint Depression Visibility Wind Speed Wind Dir Waves Ship Positions
date/time (UTC)wind fromknots sea level pressurealtimeterstation pressurevisibilityair tempwater tempwave heightnotes
2014-Oct-31 19:45 294 11.1
2014-Oct-31 19:30 294 11.1
2014-Oct-31 19:15 294 11.1
2014-Oct-31 19:00 294 11.1
2014-Oct-31 18:45 294 11.1
2014-Oct-31 18:30 294 11.1
2014-Oct-31 18:15 294 11.1
2014-Oct-31 18:00 294 11.1
2014-Oct-31 17:45 294 11.1
2014-Oct-31 17:30 294 11.1
2014-Oct-31 17:15 294 11.7
2014-Oct-31 17:00 294 11.7
2014-Oct-31 16:45 358 0 gusting 5 11.7
2014-Oct-31 16:30 345 1 gusting 8 11.7
2014-Oct-31 16:15 237 1 gusting 6 11.1
2014-Oct-31 16:00 036 0 gusting 6 11.7
2014-Oct-31 15:45 274 1 gusting 6 11.7
2014-Oct-31 15:30 004 0 gusting 4 11.7
2014-Oct-31 15:15 306 0 gusting 4 12.2
2014-Oct-31 15:00 331 0 gusting 4 12.2
2014-Oct-31 14:45 344 12.8
2014-Oct-31 14:30 355 0 gusting 2 12.8
2014-Oct-31 14:15 12.8
2014-Oct-31 14:00 332 1 gusting 4 12.8
2014-Oct-31 13:45 038 0 gusting 2 12.8
2014-Oct-31 13:30 355 0 gusting 5 12.8
2014-Oct-31 13:15 288 12.2
2014-Oct-31 13:00 045 1 gusting 5 12.2
2014-Oct-31 12:45 262 0 gusting 6 12.2
2014-Oct-31 12:30 307 0 gusting 6 12.2
2014-Oct-31 12:15 288 1 gusting 6 12.2
2014-Oct-31 12:00 240 1 gusting 6 12.2
2014-Oct-31 11:45 259 2 gusting 6 11.7
2014-Oct-31 11:30 312 0 gusting 6 11.7
2014-Oct-31 11:15 260 2 gusting 10 11.1
2014-Oct-31 11:00 132 0 gusting 6 11.1
2014-Oct-31 10:45 233 1 gusting 6 11.7
2014-Oct-31 10:30 328 0 gusting 5 11.7
2014-Oct-31 10:15 226 11.1
2014-Oct-31 10:00 215 0 gusting 2 11.1
2014-Oct-31 09:45 038 0 gusting 1 11.1
2014-Oct-31 09:30 055 11.1
2014-Oct-31 09:15 055 0 gusting 2 11.1
2014-Oct-31 09:00 045 11.1
2014-Oct-31 08:45 057 11.1
2014-Oct-31 08:30 052 11.1
2014-Oct-31 08:15 011 11.1
2014-Oct-31 08:00 011 10.6
2014-Oct-31 07:45 042 10.6
2014-Oct-31 07:30 337 10.6
2014-Oct-31 07:15 022 10.6
2014-Oct-31 07:00 022 10.6
2014-Oct-31 06:45 036 0 gusting 2 10.6
2014-Oct-31 06:30 052 11.1
2014-Oct-31 06:15 030 11.1
2014-Oct-31 06:00 031 1 gusting 2 11.1
2014-Oct-31 05:45 040 1 gusting 5 11.7
2014-Oct-31 05:30 019 11.7
2014-Oct-31 05:15 019 11.7
2014-Oct-31 05:00 019 11.7
2014-Oct-31 04:45 019 11.7
2014-Oct-31 04:30 019 11.7
2014-Oct-31 04:15 020 11.7
2014-Oct-31 04:00 020 11.7
2014-Oct-31 03:45 022 11.7
2014-Oct-31 03:30 022 11.7
2014-Oct-31 03:15 022 11.7
2014-Oct-31 03:00 022 11.7
2014-Oct-31 02:45 022 12.2
2014-Oct-31 02:30 022 12.2
2014-Oct-31 02:15 022 12.2
2014-Oct-31 02:00 022 12.2
2014-Oct-31 01:45 022 12.2
2014-Oct-31 01:30 022 12.2
2014-Oct-31 01:15 022 12.2
2014-Oct-31 01:00 022 12.8
2014-Oct-31 00:45 022 12.8
2014-Oct-31 00:30 022 12.8
2014-Oct-31 00:15 022 12.8
2014-Oct-31 00:00 022 12.8
2014-Oct-30 23:45 022 12.8
2014-Oct-30 23:30 022 12.8
2014-Oct-30 23:15 022 12.8
2014-Oct-30 23:00 022 12.8
2014-Oct-30 22:45 022 12.8
2014-Oct-30 22:30 022 12.8
2014-Oct-30 22:15 022 12.8
2014-Oct-30 22:00 022 12.8
2014-Oct-30 21:45 024 12.8
2014-Oct-30 21:30 025 12.8
2014-Oct-30 21:15 025 12.8
2014-Oct-30 20:45 029 0 gusting 2 12.8
2014-Oct-30 20:30 014 12.8
2014-Oct-30 20:15 026 12.8
2014-Oct-30 20:00 034 12.8
2014-Oct-30 19:45 033 0 gusting 2 13.3
2014-Oct-30 19:30 030 13.3
2014-Oct-30 19:15 030 13.3
2014-Oct-30 19:00 031 0 gusting 1 13.3
2014-Oct-30 18:45 031 13.3
2014-Oct-30 18:30 034 0 gusting 2 13.3
2014-Oct-30 18:15 032 0 gusting 2 13.3
2014-Oct-30 18:00 030 1 gusting 2 13.3
2014-Oct-30 17:45 032 13.3
2014-Oct-30 17:30 031 13.3
2014-Oct-30 17:15 026 13.3
2014-Oct-30 17:00 038 13.3
2014-Oct-30 16:45 044 13.3
2014-Oct-30 16:30 044 0 gusting 1 13.3
2014-Oct-30 16:15 044 13.3
2014-Oct-30 16:00 042 13.3
2014-Oct-30 15:45 040 0 gusting 2 13.3
2014-Oct-30 15:30 039 0 gusting 2 13.9
2014-Oct-30 15:15 036 0 gusting 2 13.9
2014-Oct-30 15:00 053 0 gusting 2 13.9
2014-Oct-30 14:45 043 0 gusting 2 14.4
2014-Oct-30 14:30 052 0 gusting 2 14.4
2014-Oct-30 14:15 066 14.4
2014-Oct-30 14:00 066 0 gusting 2 14.4
2014-Oct-30 13:45 152 14.4
2014-Oct-30 13:30 152 14.4
2014-Oct-30 13:15 164 14.4
2014-Oct-30 13:00 165 15.0
2014-Oct-30 12:45 159 0 gusting 2 15.0
2014-Oct-30 12:30 181 15.0
2014-Oct-30 12:15 161 15.0
2014-Oct-30 12:00 138 0 gusting 2 15.0
2014-Oct-30 11:45 138 15.0
2014-Oct-30 11:30 154 14.4
2014-Oct-30 11:15 154 14.4
2014-Oct-30 11:00 145 14.4
2014-Oct-30 10:45 282 0 gusting 2 14.4
2014-Oct-30 10:30 333 15.0
2014-Oct-30 10:15 262 15.0
2014-Oct-30 10:00 299 15.0
2014-Oct-30 09:45 280 0 gusting 5 14.4
2014-Oct-30 09:30 134 0 gusting 5 14.4
2014-Oct-30 09:15 075 14.4
2014-Oct-30 09:00 023 0 gusting 2 14.4
2014-Oct-30 08:45 117 14.4
2014-Oct-30 08:30 119 13.9
2014-Oct-30 08:15 082 13.3
2014-Oct-30 08:00 082 12.8
2014-Oct-30 07:45 355 12.8
2014-Oct-30 07:30 065 12.8
2014-Oct-30 07:15 117 12.8
2014-Oct-30 07:00 136 12.2